Location: Newark
(37.8444°N, 127.0614°E)
Time: 12:19:44
(UTC+00:00)

DX 1 - Visible Passes

Search period start: 29 January 2020 00:00
Search period end: 08 February 2020 00:00
Orbit: 620 x 630 km, 98.4° (Epoch: 29 January)

Date Brightness Start Highest point End Pass type
(mag) Time Alt. Az. Time Alt. Az. Time Alt. Az.
30 Jan ? 09:27:53 10° N 09:31:35 28° WNW 09:35:16 10° SW visible
31 Jan ? 09:47:18 10° NNW 09:50:14 18° WNW 09:53:09 10° WSW visible
01 Feb ? 10:07:25 10° NW 10:08:50 11° WNW 10:10:15 10° W visible
04 Feb ? 09:25:44 10° N 09:29:31 30° WNW 09:33:17 10° SW visible
05 Feb ? 09:45:04 10° NNW 09:48:10 19° WNW 09:51:15 10° WSW visible
06 Feb ? 10:04:58 10° NW 10:06:47 12° WNW 10:08:35 10° W visible
